DW8266 Weather Reports


Display with metric or nautical units.
time (UTC)temp
F
wind
direction
speed
MPH
gust
MPH
rain 1hr
in
rain 24hr
in
rain mn
in
humidity
%
barometer
mb
20240522131621 81 93 0.0 3.0 0.00 0.00 0.00 89 1011.3
20240522130120 81 88 0.0 2.0 0.00 0.00 0.00 90 1011.1
20240522124607 80 84 0.0 2.0 0.00 0.00 0.00 90 1011.3
20240522121600 80 89 0.0 1.0 0.00 0.00 0.00 90 1011.0
20240522120059 80 86 0.0 2.0 0.00 0.00 0.00 90 1011.0
20240522120002 80 86 0.0 2.0 0.00 0.00 0.00 90 1011.0
20240522114558 80 130 0.0 1.0 0.00 0.00 0.00 90 1010.7
20240522113105 80 130 0.0 3.0 0.00 0.00 0.00 90 1010.3
20240522111609 80 153 0.0 1.0 0.00 0.00 0.00 90 1010.0
20240522110109 80 154 0.0 1.0 0.00 0.00 0.00 90 1010.2
20240522104559 80 150 0.0 1.0 0.00 0.00 0.00 90 1009.9
20240522103110 80 150 0.0 2.0 0.00 0.00 0.00 90 1009.7
20240522101630 80 160 0.0 2.0 0.00 0.00 0.00 90 1009.9
20240522100058 80 160 0.0 2.0 0.00 0.00 0.00 91 1010.1
20240522100001 80 160 0.0 3.0 0.00 0.00 0.00 91 1010.1
20240522094559 80 180 0.0 3.0 0.00 0.00 0.00 91 1009.6
20240522093058 80 197 0.0 3.0 0.00 0.00 0.00 90 1009.6
20240522091559 80 155 0.0 3.0 0.00 0.00 0.00 90 1009.4
20240522090115 80 152 0.0 3.0 0.00 0.00 0.00 90 1009.6
20240522084600 80 186 0.0 3.0 0.00 0.00 0.00 90 1009.7
20240522083058 80 211 0.0 5.0 0.00 0.00 0.00 90 1009.6
20240522081556 80 57 1.0 6.0 0.00 0.00 0.00 91 1009.5
20240522074600 80 173 0.0 7.0 0.00 0.00 0.00 91 1009.7
20240522073058 80 217 0.0 6.0 0.00 0.00 0.00 91 1009.8
20240522071603 80 169 0.0 5.0 0.00 0.00 0.00 90 1010.0
20240522070104 80 157 1.0 5.0 0.00 0.00 0.00 90 1009.9
20240522064558 81 126 1.0 5.0 0.00 0.00 0.00 90 1010.2
20240522063104 81 183 0.0 6.0 0.00 0.00 0.00 90 1010.4
20240522061557 81 175 2.0 7.0 0.00 0.00 0.00 90 1010.4
20240522060109 81 167 0.0 2.0 0.00 0.00 0.00 90 1010.6
20240522054558 81 109 0.0 3.0 0.00 0.00 0.00 89 1010.6
20240522053056 81 76 1.0 4.0 0.00 0.00 0.00 89 1010.6
20240522051559 81 155 0.0 5.0 0.00 0.00 0.00 89 1010.6
20240522050004 81 148 0.0 3.0 0.00 0.00 0.00 89 1010.6
20240522044650 81 154 0.0 5.0 0.00 0.00 0.00 89 1010.7
20240522043100 81 165 1.0 5.0 0.00 0.00 0.00 89 1011.1
20240522041601 81 158 0.0 3.0 0.00 0.00 0.00 89 1011.0
20240522041500 82 163 0.0 5.0 0.00 0.00 0.00 89 1011.1
20240522040100 81 133 0.0 3.0 0.00 0.00 0.00 89 1011.1
20240522040002 81 133 0.0 3.0 0.00 0.00 0.00 89 1011.1
20240522033002 82 155 1.0 6.0 0.00 0.00 0.00 88 1010.7
20240522031607 82 171 0.0 5.0 0.00 0.00 0.00 88 1010.1
20240522030100 82 188 1.0 5.0 0.00 0.00 0.00 88 1010.1
20240522024600 82 55 1.0 7.0 0.00 0.00 0.00 87 1009.6
20240522023124 82 12 1.0 4.0 0.00 0.00 0.00 87 1009.6
20240522020127 83 360 1.0 4.0 0.00 0.00 0.00 86 1009.4
20240522014623 83 59 1.0 4.0 0.00 0.00 0.00 85 1009.4
20240522013059 84 74 1.0 5.0 0.00 0.00 0.00 85 1009.3
20240522011602 84 159 0.0 3.0 0.00 0.00 0.00 84 1009.1
20240522010002 85 163 0.0 6.0 0.00 0.00 0.00 84 1009.0
20240522004605 85 76 0.0 5.0 0.00 0.00 0.00 83 1009.1
20240522004502 85 76 1.0 5.0 0.00 0.00 0.00 83 1009.0
20240522001614 87 56 1.0 5.0 0.00 0.00 0.00 81 1008.8
20240522000059 87 77 1.0 5.0 0.00 0.00 0.00 81 1008.4
20240522000002 87 66 0.0 5.0 0.00 0.00 0.00 81 1008.4
20240521234633 88 96 0.0 5.0 0.00 0.00 0.00 79 1008.3
20240521233103 88 133 0.0 4.0 0.00 0.00 0.00 77 1008.3
20240521231559 89 48 1.0 8.0 0.00 0.00 0.00 76 1008.4
20240521230107 89 181 2.0 6.0 0.00 0.00 0.00 77 1008.3
20240521230002 89 173 2.0 6.0 0.00 0.00 0.00 77 1008.3
20240521224600 90 94 1.0 8.0 0.00 0.00 0.00 76 1008.2
20240521223058 90 65 1.0 8.0 0.00 0.00 0.00 74 1008.3
20240521221601 91 146 2.0 8.0 0.00 0.00 0.00 73 1008.2
20240521220104 91 193 3.0 9.0 0.00 0.00 0.00 75 1008.3
20240521220003 91 141 2.0 9.0 0.00 0.00 0.00 76 1008.3
20240521214559 91 200 4.0 9.0 0.00 0.00 0.00 75 1008.1
20240521213103 91 123 1.0 8.0 0.00 0.00 0.00 75 1008.4
20240521211600 91 167 1.0 9.0 0.00 0.00 0.00 75 1008.6
20240521210100 90 163 1.0 8.0 0.00 0.00 0.00 76 1008.7
20240521210005 90 190 2.0 8.0 0.00 0.00 0.00 75 1008.7
20240521204610 92 182 2.0 9.0 0.00 0.00 0.00 74 1008.7
20240521203104 92 175 3.0 7.0 0.00 0.00 0.00 74 1008.9
20240521201602 91 183 2.0 8.0 0.00 0.00 0.00 76 1009.2
20240521200103 91 171 3.0 8.0 0.00 0.00 0.00 76 1009.4
20240521194641 90 173 1.0 8.0 0.00 0.00 0.00 77 1009.6
20240521193110 90 180 3.0 10.0 0.00 0.00 0.00 77 1009.5
20240521191559 91 188 3.0 6.0 0.00 0.00 0.00 75 1009.5
20240521190059 90 173 1.0 7.0 0.00 0.00 0.00 75 1009.6
20240521184559 91 178 1.0 8.0 0.00 0.00 0.00 74 1009.5
20240521183105 91 179 3.0 7.0 0.00 0.00 0.00 74 1009.6
20240521181559 91 115 1.0 6.0 0.00 0.00 0.00 75 1009.7
20240521180059 90 105 0.0 5.0 0.00 0.00 0.00 77 1009.9
20240521180002 90 175 0.0 5.0 0.00 0.00 0.00 77 1009.9
20240521174607 90 182 1.0 9.0 0.00 0.00 0.00 78 1009.9
20240521173100 89 175 4.0 9.0 0.00 0.00 0.00 78 1010.2
20240521170100 88 178 2.0 6.0 0.00 0.00 0.00 81 1010.2
20240521170001 87 184 2.0 6.0 0.00 0.00 0.00 81 1010.2
20240521164558 87 222 2.0 6.0 0.00 0.00 0.00 82 1010.5
20240521163058 88 192 2.0 6.0 0.00 0.00 0.00 81 1010.8
20240521161613 88 207 2.0 7.0 0.00 0.00 0.00 81 1010.4
20240521160129 87 331 1.0 8.0 0.00 0.00 0.00 83 1010.3
20240521154559 85 192 2.0 6.0 0.00 0.00 0.00 84 1010.2
20240521153100 85 207 2.0 8.0 0.00 0.00 0.00 85 1010.5
20240521150100 84 154 1.0 6.0 0.00 0.00 0.00 87 1010.2
20240521150000 84 165 2.0 6.0 0.00 0.00 0.00 87 1010.2